Location: Cruquius
(52.3348°N, 4.6319°E)
Time: 20:14:42
(UTC+00:00)

Cosmos 2278 Rocket - Pass Details

Date: 12 May 2021
Orbit: 841 x 845 km, 71.0° (Epoch: 21 June)

Event Time Altitude Azimuth Distance (km) Brightness Sun altitude
Rises 21:47:21 0° 223° (SW) 3,388 5.1 -15.3°
Reaches altitude 10° 21:49:50 10° 228° (SW) 2,457 4.5 -15.5°
Maximum altitude 21:55:23 57° 307° (NW) 986 2.8 -15.9°
Drops below altitude 10° 22:00:59 10° 26° (NNE) 2,472 5.2 -16.2°
Sets 22:03:29 0° 31° (NNE) 3,410 5.9 -16.4°
